Time,TemperatureF,DewpointF,PressureIn,WindDirection,WindDirectionDegrees,WindSpeedMPH,WindSpeedGustMPH,Humidity,HourlyPrecipIn,Conditions,Clouds,dailyrainin,SoftwareType,DateUTC
2013-03-03 00:10:00,35.6,25.0,28.76,NE,45,0.0,0.0,65,0.00,,---,0.12,VWS V14.00,2013-03-03 05:10:00,
2013-03-03 00:16:00,35.2,24.7,28.76,NE,45,0.9,0.9,65,0.00,,---,0.00,VWS V14.00,2013-03-03 05:16:00,
2013-03-03 00:19:00,35.2,24.7,28.76,NE,45,0.0,0.9,65,0.00,,---,0.00,VWS V14.00,2013-03-03 05:19:00,
2013-03-03 00:25:00,35.1,24.5,28.76,NE,45,0.0,0.9,65,0.00,,---,0.00,VWS V14.00,2013-03-03 05:25:00,
2013-03-03 00:31:00,34.9,24.3,28.76,NE,45,0.0,0.9,65,0.00,,---,0.00,VWS V14.00,2013-03-03 05:31:00,
2013-03-03 00:37:00,34.7,24.5,28.76,NNW,338,0.0,0.9,66,0.00,,---,0.00,VWS V14.00,2013-03-03 05:37:00,
2013-03-03 00:43:00,34.5,24.4,28.76,NNW,338,0.0,0.9,66,0.00,,---,0.00,VWS V14.00,2013-03-03 05:43:00,
2013-03-03 00:49:00,34.2,24.0,28.76,NE,45,0.0,0.9,66,0.00,,---,0.00,VWS V14.00,2013-03-03 05:49:00,
2013-03-03 00:55:00,34.0,23.8,28.76,North,0,0.0,0.9,66,0.00,,---,0.00,VWS V14.00,2013-03-03 05:55:00,
2013-03-03 01:01:00,34.0,23.8,28.76,NNW,338,0.0,0.0,66,0.00,,---,0.00,VWS V14.00,2013-03-03 06:01:00,
2013-03-03 01:07:00,34.0,23.8,28.76,NNW,338,0.0,0.0,66,0.00,,---,0.00,VWS V14.00,2013-03-03 06:07:00,
2013-03-03 01:13:00,33.6,23.5,28.76,NNW,338,0.0,0.0,66,0.00,,---,0.00,VWS V14.00,2013-03-03 06:13:00,
2013-03-03 01:19:00,33.6,23.9,28.76,NNW,338,0.0,0.0,67,0.00,,---,0.00,VWS V14.00,2013-03-03 06:19:00,
2013-03-03 01:25:00,33.3,23.5,28.76,NNW,338,0.0,0.0,67,0.00,,---,0.00,VWS V14.00,2013-03-03 06:25:00,
2013-03-03 01:31:00,33.3,23.5,28.76,NE,45,0.0,0.0,67,0.00,,---,0.00,VWS V14.00,2013-03-03 06:31:00,
2013-03-03 01:37:00,33.3,23.5,28.76,NE,45,0.0,0.0,67,0.00,,---,0.00,VWS V14.00,2013-03-03 06:37:00,
2013-03-03 01:43:00,33.3,23.5,28.76,NE,45,0.0,0.0,67,0.00,,---,0.00,VWS V14.00,2013-03-03 06:43:00,
2013-03-03 01:49:00,33.1,23.3,28.76,NE,45,0.0,0.0,67,0.00,,---,0.00,VWS V14.00,2013-03-03 06:49:00,
2013-03-03 01:55:00,33.1,23.3,28.76,NE,45,0.0,0.0,67,0.00,,---,0.00,VWS V14.00,2013-03-03 06:55:00,
2013-03-03 02:01:00,32.7,23.0,28.76,NE,45,0.0,0.0,67,0.00,,---,0.00,VWS V14.00,2013-03-03 07:01:00,
2013-03-03 02:07:00,32.7,23.3,28.76,NE,45,0.0,0.0,68,0.00,,---,0.00,VWS V14.00,2013-03-03 07:07:00,
2013-03-03 02:13:00,32.5,23.2,28.76,NE,45,0.0,0.0,68,0.00,,---,0.00,VWS V14.00,2013-03-03 07:13:00,
2013-03-03 02:19:00,32.5,23.2,28.76,NNE,22,0.0,0.0,68,0.00,,---,0.00,VWS V14.00,2013-03-03 07:19:00,
2013-03-03 02:25:00,32.2,22.8,28.76,NE,45,0.0,0.0,68,0.00,,---,0.00,VWS V14.00,2013-03-03 07:25:00,
2013-03-03 02:31:00,32.4,23.0,28.76,NE,45,0.0,0.0,68,0.00,,---,0.00,VWS V14.00,2013-03-03 07:31:00,
2013-03-03 02:37:00,32.4,23.0,28.76,NE,45,0.0,0.0,68,0.00,,---,0.00,VWS V14.00,2013-03-03 07:37:00,
2013-03-03 02:43:00,32.2,22.8,28.76,NE,45,0.0,0.0,68,0.00,,---,0.00,VWS V14.00,2013-03-03 07:43:00,
2013-03-03 02:49:00,32.0,22.6,28.76,NE,45,0.0,0.0,68,0.00,,---,0.00,VWS V14.00,2013-03-03 07:49:00,
2013-03-03 02:55:00,32.2,23.2,28.76,NNW,338,0.0,0.0,69,0.00,,---,0.00,VWS V14.00,2013-03-03 07:55:00,
2013-03-03 03:01:00,31.8,22.5,28.76,NE,45,0.0,0.0,68,0.00,,---,0.00,VWS V14.00,2013-03-03 08:01:00,
2013-03-03 03:07:00,31.8,22.8,28.76,NE,45,0.0,0.0,69,0.00,,---,0.00,VWS V14.00,2013-03-03 08:07:00,
2013-03-03 03:13:00,31.5,22.5,28.76,NE,45,0.0,0.0,69,0.00,,---,0.00,VWS V14.00,2013-03-03 08:13:00,
2013-03-03 03:19:00,31.1,22.1,28.76,NE,45,0.0,0.0,69,0.00,,---,0.00,VWS V14.00,2013-03-03 08:19:00,
2013-03-03 03:25:00,30.9,22.0,28.76,NE,45,0.0,0.0,69,0.00,,---,0.00,VWS V14.00,2013-03-03 08:25:00,
2013-03-03 03:31:00,31.1,22.1,28.76,West,270,0.0,0.0,69,0.00,,---,0.00,VWS V14.00,2013-03-03 08:31:00,
2013-03-03 03:37:00,31.1,22.1,28.76,West,270,0.0,0.0,69,0.00,,---,0.00,VWS V14.00,2013-03-03 08:37:00,
2013-03-03 03:43:00,31.1,22.1,28.76,West,270,0.0,0.0,69,0.00,,---,0.00,VWS V14.00,2013-03-03 08:43:00,
2013-03-03 03:49:00,30.9,22.0,28.76,West,270,0.0,0.0,69,0.00,,---,0.00,VWS V14.00,2013-03-03 08:49:00,
2013-03-03 03:55:00,30.9,22.0,28.76,West,270,0.0,0.0,69,0.00,,---,0.00,VWS V14.00,2013-03-03 08:55:00,
2013-03-03 04:01:00,30.7,21.8,28.76,West,270,0.0,0.0,69,0.00,,---,0.00,VWS V14.00,2013-03-03 09:01:00,
2013-03-03 04:07:00,30.4,21.4,28.76,NW,315,0.0,0.0,69,0.00,,---,0.00,VWS V14.00,2013-03-03 09:07:00,
2013-03-03 04:13:00,30.2,21.6,28.76,NNE,22,0.0,0.0,70,0.00,,---,0.00,VWS V14.00,2013-03-03 09:13:00,
2013-03-03 04:19:00,30.0,21.8,28.76,NNW,338,0.0,0.0,71,0.00,,---,0.00,VWS V14.00,2013-03-03 09:19:00,
2013-03-03 04:25:00,30.2,21.9,28.76,NNW,338,0.0,0.0,71,0.00,,---,0.00,VWS V14.00,2013-03-03 09:25:00,
2013-03-03 04:31:00,30.0,21.8,28.76,NNW,338,0.0,0.0,71,0.00,,---,0.00,VWS V14.00,2013-03-03 09:31:00,
2013-03-03 04:37:00,30.0,21.4,28.76,NW,315,0.0,1.3,70,0.00,,---,0.00,VWS V14.00,2013-03-03 09:37:00,
2013-03-03 04:43:00,29.8,21.3,28.76,NW,315,0.0,1.3,70,0.00,,---,0.00,VWS V14.00,2013-03-03 09:43:00,
2013-03-03 04:49:00,29.7,21.1,28.76,NNW,338,0.0,1.3,70,0.00,,---,0.00,VWS V14.00,2013-03-03 09:49:00,
2013-03-03 04:56:00,29.7,21.4,28.76,NNW,338,0.0,1.3,71,0.00,,---,0.00,VWS V14.00,2013-03-03 09:56:00,
2013-03-03 05:02:00,29.7,21.4,28.76,West,270,0.0,0.0,71,0.00,,---,0.00,VWS V14.00,2013-03-03 10:02:00,
2013-03-03 05:08:00,29.5,21.2,28.76,WNW,292,0.0,1.6,71,0.00,,---,0.00,VWS V14.00,2013-03-03 10:08:00,
2013-03-03 05:14:00,29.3,21.1,28.76,WNW,292,0.0,1.6,71,0.00,,---,0.00,VWS V14.00,2013-03-03 10:14:00,
2013-03-03 05:20:00,29.1,20.9,28.76,NE,45,0.0,1.6,71,0.00,,---,0.00,VWS V14.00,2013-03-03 10:20:00,
2013-03-03 05:26:00,28.8,20.6,28.76,NNE,22,0.0,1.6,71,0.00,,---,0.00,VWS V14.00,2013-03-03 10:26:00,
2013-03-03 05:32:00,28.8,20.9,28.76,NNE,22,0.0,1.6,72,0.00,,---,0.00,VWS V14.00,2013-03-03 10:32:00,
2013-03-03 05:38:00,28.8,20.9,28.76,NNE,22,0.0,1.6,72,0.00,,---,0.00,VWS V14.00,2013-03-03 10:38:00,
2013-03-03 05:44:00,28.8,20.9,28.76,NNE,22,0.0,1.6,72,0.00,,---,0.00,VWS V14.00,2013-03-03 10:44:00,
2013-03-03 05:50:00,28.8,20.9,28.79,NNE,22,0.0,1.6,72,0.00,,---,0.00,VWS V14.00,2013-03-03 10:50:00,
2013-03-03 05:56:00,28.6,20.7,28.79,NNE,22,0.0,1.6,72,0.00,,---,0.00,VWS V14.00,2013-03-03 10:56:00,
2013-03-03 06:02:00,28.4,20.5,28.79,NNE,22,0.0,0.0,72,0.00,,---,0.00,VWS V14.00,2013-03-03 11:02:00,
2013-03-03 06:08:00,28.4,20.5,28.79,NNE,22,0.0,0.0,72,0.00,,---,0.00,VWS V14.00,2013-03-03 11:08:00,
2013-03-03 06:14:00,28.4,20.5,28.76,NNE,22,0.0,0.0,72,0.00,,---,0.00,VWS V14.00,2013-03-03 11:14:00,
2013-03-03 06:20:00,28.2,20.4,28.76,NE,45,0.0,0.0,72,0.00,,---,0.00,VWS V14.00,2013-03-03 11:20:00,
2013-03-03 06:26:00,28.2,20.4,28.76,NE,45,0.0,0.0,72,0.00,,---,0.00,VWS V14.00,2013-03-03 11:26:00,
2013-03-03 06:32:00,28.2,20.4,28.76,NE,45,0.0,0.0,72,0.00,,---,0.00,VWS V14.00,2013-03-03 11:32:00,
2013-03-03 06:38:00,28.2,20.4,28.76,NNW,338,0.0,0.0,72,0.00,,---,0.00,VWS V14.00,2013-03-03 11:38:00,
2013-03-03 06:44:00,28.0,20.2,28.76,NNW,338,0.0,0.0,72,0.00,,---,0.00,VWS V14.00,2013-03-03 11:44:00,
2013-03-03 06:50:00,28.0,20.2,28.79,North,0,0.0,0.0,72,0.00,,---,0.00,VWS V14.00,2013-03-03 11:50:00,
2013-03-03 06:56:00,27.9,20.3,28.79,North,0,0.0,0.0,73,0.00,,---,0.00,VWS V14.00,2013-03-03 11:56:00,
2013-03-03 07:02:00,27.9,20.3,28.79,North,0,0.0,0.0,73,0.00,,---,0.00,VWS V14.00,2013-03-03 12:02:00,
2013-03-03 07:08:00,27.9,20.3,28.79,North,0,0.0,0.0,73,0.00,,---,0.00,VWS V14.00,2013-03-03 12:08:00,
2013-03-03 07:14:00,27.9,20.3,28.79,North,0,0.0,0.0,73,0.00,,---,0.00,VWS V14.00,2013-03-03 12:14:00,
2013-03-03 07:20:00,27.9,20.3,28.79,North,0,0.0,0.0,73,0.00,,---,0.00,VWS V14.00,2013-03-03 12:20:00,
2013-03-03 07:26:00,28.0,20.5,28.79,North,0,0.0,0.0,73,0.00,,---,0.00,VWS V14.00,2013-03-03 12:26:00,
2013-03-03 07:32:00,28.0,20.5,28.82,North,0,0.0,0.0,73,0.00,,---,0.00,VWS V14.00,2013-03-03 12:32:00,
2013-03-03 07:38:00,28.0,20.5,28.82,North,0,0.0,0.0,73,0.00,,---,0.00,VWS V14.00,2013-03-03 12:38:00,
2013-03-03 07:44:00,28.2,21.0,28.82,North,0,0.0,0.0,74,0.00,,---,0.00,VWS V14.00,2013-03-03 12:44:00,
2013-03-03 07:50:00,30.2,22.9,28.82,North,0,0.0,0.0,74,0.00,,---,0.00,VWS V14.00,2013-03-03 12:50:00,
2013-03-03 07:56:00,32.5,25.2,28.82,North,0,0.0,0.0,74,0.00,,---,0.00,VWS V14.00,2013-03-03 12:56:00,
2013-03-03 08:02:00,35.4,27.3,28.82,North,0,0.0,0.0,72,0.00,,---,0.00,VWS V14.00,2013-03-03 13:02:00,
2013-03-03 08:08:00,36.7,28.2,28.82,North,0,0.0,0.0,71,0.00,,---,0.00,VWS V14.00,2013-03-03 13:08:00,
2013-03-03 08:14:00,37.8,28.5,28.82,NNE,22,0.0,1.3,69,0.00,,---,0.00,VWS V14.00,2013-03-03 13:14:00,
2013-03-03 08:20:00,40.3,30.6,28.82,ENE,68,0.0,1.3,68,0.00,,---,0.00,VWS V14.00,2013-03-03 13:20:00,
2013-03-03 08:26:00,41.4,30.9,28.82,ENE,68,0.0,1.3,66,0.00,,---,0.00,VWS V14.00,2013-03-03 13:26:00,
2013-03-03 08:32:00,43.9,32.9,28.82,East,90,0.9,1.3,65,0.00,,---,0.00,VWS V14.00,2013-03-03 13:32:00,
2013-03-03 08:38:00,43.7,32.3,28.82,ESE,112,1.1,1.6,64,0.00,,---,0.00,VWS V14.00,2013-03-03 13:38:00,
2013-03-03 08:44:00,44.1,32.3,28.82,NE,45,1.6,2.0,63,0.00,,---,0.00,VWS V14.00,2013-03-03 13:44:00,
2013-03-03 08:50:00,45.5,33.7,28.82,ESE,112,3.1,3.1,63,0.00,,---,0.00,VWS V14.00,2013-03-03 13:50:00,
2013-03-03 08:56:00,46.6,34.3,28.82,SE,135,2.5,3.4,62,0.00,,---,0.00,VWS V14.00,2013-03-03 13:56:00,
2013-03-03 09:02:00,48.6,34.9,28.82,ESE,112,2.5,3.8,59,0.00,,---,0.00,VWS V14.00,2013-03-03 14:02:00,
2013-03-03 09:08:00,48.6,34.9,28.82,East,90,3.4,3.8,59,0.00,,---,0.00,VWS V14.00,2013-03-03 14:08:00,
2013-03-03 09:14:00,49.8,36.1,28.82,East,90,2.9,3.8,59,0.00,,---,0.00,VWS V14.00,2013-03-03 14:14:00,
2013-03-03 09:20:00,50.4,36.6,28.82,ENE,68,2.0,3.8,59,0.00,,---,0.00,VWS V14.00,2013-03-03 14:20:00,
2013-03-03 09:26:00,50.4,36.6,28.82,East,90,4.3,4.3,59,0.00,,---,0.00,VWS V14.00,2013-03-03 14:26:00,
2013-03-03 09:33:00,52.7,38.3,28.82,East,90,2.7,4.3,58,0.00,,---,0.00,VWS V14.00,2013-03-03 14:33:00,
2013-03-03 09:39:00,52.5,37.3,28.82,East,90,2.9,4.3,56,0.00,,---,0.00,VWS V14.00,2013-03-03 14:39:00,
2013-03-03 09:45:00,53.6,37.8,28.82,SE,135,4.7,4.7,55,0.00,,---,0.00,VWS V14.00,2013-03-03 14:45:00,
2013-03-03 09:51:00,52.0,36.8,28.79,WSW,248,4.3,4.9,56,0.00,,---,0.00,VWS V14.00,2013-03-03 14:51:00,
2013-03-03 09:57:00,50.4,35.3,28.79,ENE,68,3.1,4.9,56,0.00,,---,0.00,VWS V14.00,2013-03-03 14:57:00,
2013-03-03 10:03:00,49.6,34.6,28.79,East,90,2.0,2.9,56,0.00,,---,0.00,VWS V14.00,2013-03-03 15:03:00,
2013-03-03 10:09:00,49.5,34.4,28.79,South,180,2.9,4.0,56,0.00,,---,0.00,VWS V14.00,2013-03-03 15:09:00,
2013-03-03 10:15:00,48.7,33.8,28.79,WNW,292,4.3,4.3,56,0.00,,---,0.00,VWS V14.00,2013-03-03 15:15:00,
2013-03-03 10:21:00,48.7,33.8,28.79,SE,135,2.0,4.3,56,0.00,,---,0.00,VWS V14.00,2013-03-03 15:21:00,
2013-03-03 10:27:00,48.4,33.4,28.79,SW,225,2.2,4.3,56,0.00,,---,0.00,VWS V14.00,2013-03-03 15:27:00,
2013-03-03 10:33:00,47.8,33.4,28.79,SE,135,3.4,6.0,57,0.00,,---,0.00,VWS V14.00,2013-03-03 15:33:00,
2013-03-03 10:39:00,47.8,33.4,28.79,East,90,1.1,6.0,57,0.00,,---,0.00,VWS V14.00,2013-03-03 15:39:00,
2013-03-03 10:45:00,48.0,33.5,28.79,SW,225,2.0,6.0,57,0.00,,---,0.00,VWS V14.00,2013-03-03 15:45:00,
2013-03-03 10:51:00,48.0,33.5,28.79,ESE,112,3.6,6.0,57,0.00,,---,0.00,VWS V14.00,2013-03-03 15:51:00,
2013-03-03 10:57:00,47.8,33.4,28.79,NNW,338,3.6,6.0,57,0.00,,---,0.00,VWS V14.00,2013-03-03 15:57:00,
2013-03-03 11:03:00,47.5,33.0,28.79,ESE,112,3.6,3.6,57,0.00,,---,0.00,VWS V14.00,2013-03-03 16:03:00,
2013-03-03 11:09:00,47.5,33.0,28.79,ENE,68,2.9,4.0,57,0.00,,---,0.00,VWS V14.00,2013-03-03 16:09:00,
2013-03-03 11:15:00,47.1,32.7,28.79,East,90,0.9,5.4,57,0.00,,---,0.00,VWS V14.00,2013-03-03 16:15:00,
2013-03-03 11:21:00,46.8,32.3,28.79,NE,45,2.7,5.4,57,0.00,,---,0.00,VWS V14.00,2013-03-03 16:21:00,
2013-03-03 11:27:00,47.1,32.7,28.79,NW,315,1.3,5.4,57,0.00,,---,0.00,VWS V14.00,2013-03-03 16:27:00,
2013-03-03 11:33:00,47.3,32.8,28.79,SSE,158,5.4,5.4,57,0.00,,---,0.00,VWS V14.00,2013-03-03 16:33:00,
2013-03-03 11:39:00,46.6,30.8,28.79,WSW,248,4.7,5.6,54,0.00,,---,0.00,VWS V14.00,2013-03-03 16:39:00,
2013-03-03 11:45:00,46.6,32.2,28.79,NNW,338,3.1,5.6,57,0.00,,---,0.00,VWS V14.00,2013-03-03 16:45:00,
2013-03-03 11:51:00,46.9,32.5,28.76,West,270,1.3,5.6,57,0.00,,---,0.00,VWS V14.00,2013-03-03 16:51:00,
2013-03-03 11:57:00,47.1,32.7,28.76,North,0,2.2,7.4,57,0.00,,---,0.00,VWS V14.00,2013-03-03 16:57:00,
2013-03-03 12:03:00,47.3,32.8,28.76,SSE,158,1.3,3.4,57,0.00,,---,0.00,VWS V14.00,2013-03-03 17:03:00,
2013-03-03 12:09:00,47.5,33.0,28.76,NE,45,2.5,3.4,57,0.00,,---,0.00,VWS V14.00,2013-03-03 17:09:00,
2013-03-03 12:15:00,47.5,33.0,28.76,West,270,2.5,3.4,57,0.00,,---,0.00,VWS V14.00,2013-03-03 17:15:00,
2013-03-03 12:21:00,47.7,33.2,28.76,NW,315,2.0,3.4,57,0.00,,---,0.00,VWS V14.00,2013-03-03 17:21:00,
2013-03-03 12:27:00,47.8,33.4,28.76,NW,315,2.0,3.4,57,0.00,,---,0.00,VWS V14.00,2013-03-03 17:27:00,
2013-03-03 12:33:00,48.0,33.5,28.76,WNW,292,0.0,4.0,57,0.00,,---,0.00,VWS V14.00,2013-03-03 17:33:00,
2013-03-03 12:39:00,48.4,33.4,28.76,East,90,3.4,4.3,56,0.00,,---,0.00,VWS V14.00,2013-03-03 17:39:00,
2013-03-03 12:45:00,48.4,33.4,28.76,SE,135,4.3,4.3,56,0.00,,---,0.00,VWS V14.00,2013-03-03 17:45:00,
2013-03-03 12:51:00,48.9,33.9,28.73,NNE,22,1.3,4.3,56,0.00,,---,0.00,VWS V14.00,2013-03-03 17:51:00,
2013-03-03 12:57:00,49.1,34.1,28.73,WSW,248,3.6,4.7,56,0.00,,---,0.00,VWS V14.00,2013-03-03 17:57:00,
2013-03-03 13:03:00,49.5,34.4,28.73,WNW,292,3.6,4.0,56,0.00,,---,0.00,VWS V14.00,2013-03-03 18:03:00,
2013-03-03 13:09:00,49.5,34.4,28.73,ESE,112,3.6,4.0,56,0.00,,---,0.00,VWS V14.00,2013-03-03 18:09:00,
2013-03-03 13:15:00,49.8,34.8,28.73,SE,135,4.3,6.3,56,0.00,,---,0.00,VWS V14.00,2013-03-03 18:15:00,
2013-03-03 13:21:00,49.8,34.8,28.73,East,90,2.2,6.3,56,0.00,,---,0.00,VWS V14.00,2013-03-03 18:21:00,
2013-03-03 13:27:00,49.6,34.6,28.73,West,270,1.6,6.3,56,0.00,,---,0.00,VWS V14.00,2013-03-03 18:27:00,
2013-03-03 13:33:00,49.3,34.3,28.73,ENE,68,2.9,6.3,56,0.00,,---,0.00,VWS V14.00,2013-03-03 18:33:00,
2013-03-03 13:39:00,49.1,34.1,28.73,ENE,68,4.3,6.3,56,0.00,,---,0.00,VWS V14.00,2013-03-03 18:39:00,
2013-03-03 13:45:00,49.5,34.4,28.73,ESE,112,1.3,7.2,56,0.00,,---,0.00,VWS V14.00,2013-03-03 18:45:00,
2013-03-03 13:51:00,49.5,33.5,28.73,East,90,2.5,7.2,54,0.00,,---,0.00,VWS V14.00,2013-03-03 18:51:00,
2013-03-03 13:57:00,49.6,33.7,28.73,WSW,248,4.9,7.6,54,0.00,,---,0.00,VWS V14.00,2013-03-03 18:57:00,
2013-03-03 14:03:00,49.8,34.8,28.70,SW,225,2.5,2.7,56,0.00,,---,0.00,VWS V14.00,2013-03-03 19:03:00,
2013-03-03 14:09:00,50.2,35.1,28.70,SSE,158,1.1,4.9,56,0.00,,---,0.00,VWS V14.00,2013-03-03 19:09:00,
2013-03-03 14:15:00,50.2,34.2,28.70,West,270,2.0,4.9,54,0.00,,---,0.00,VWS V14.00,2013-03-03 19:15:00,
2013-03-03 14:21:00,50.2,34.2,28.70,South,180,2.9,4.9,54,0.00,,---,0.00,VWS V14.00,2013-03-03 19:21:00,
2013-03-03 14:27:00,50.4,34.4,28.70,North,0,3.6,4.9,54,0.00,,---,0.00,VWS V14.00,2013-03-03 19:27:00,
2013-03-03 14:33:00,50.5,34.5,28.70,West,270,2.7,4.9,54,0.00,,---,0.00,VWS V14.00,2013-03-03 19:33:00,
2013-03-03 14:40:00,50.7,34.7,28.70,WNW,292,1.3,6.0,54,0.00,,---,0.00,VWS V14.00,2013-03-03 19:40:00,
2013-03-03 14:46:00,50.7,34.7,28.70,WNW,292,3.8,6.0,54,0.00,,---,0.00,VWS V14.00,2013-03-03 19:46:00,
2013-03-03 14:52:00,50.9,34.9,28.70,WSW,248,3.4,6.0,54,0.00,,---,0.00,VWS V14.00,2013-03-03 19:52:00,
2013-03-03 14:58:00,51.1,35.0,28.70,ESE,112,3.1,6.0,54,0.00,,---,0.00,VWS V14.00,2013-03-03 19:58:00,
2013-03-03 15:04:00,51.1,35.0,28.70,South,180,2.5,3.1,54,0.00,,---,0.00,VWS V14.00,2013-03-03 20:04:00,
2013-03-03 15:10:00,51.3,35.2,28.70,West,270,7.2,7.2,54,0.00,,---,0.00,VWS V14.00,2013-03-03 20:10:00,
2013-03-03 15:16:00,51.3,35.2,28.70,ESE,112,1.6,7.2,54,0.00,,---,0.00,VWS V14.00,2013-03-03 20:16:00,
2013-03-03 15:22:00,51.3,35.2,28.70,West,270,2.7,7.2,54,0.00,,---,0.00,VWS V14.00,2013-03-03 20:22:00,
2013-03-03 15:28:00,51.3,35.2,28.70,West,270,2.9,7.2,54,0.00,,---,0.00,VWS V14.00,2013-03-03 20:28:00,
2013-03-03 15:34:00,51.3,35.2,28.70,ENE,68,2.5,7.2,54,0.00,,---,0.00,VWS V14.00,2013-03-03 20:34:00,
2013-03-03 15:40:00,51.3,35.2,28.70,East,90,2.7,7.2,54,0.00,,---,0.00,VWS V14.00,2013-03-03 20:40:00,
2013-03-03 15:46:00,51.3,35.2,28.70,West,270,3.6,7.2,54,0.00,,---,0.00,VWS V14.00,2013-03-03 20:46:00,
2013-03-03 15:52:00,51.1,35.0,28.70,West,270,3.8,7.2,54,0.00,,---,0.00,VWS V14.00,2013-03-03 20:52:00,
2013-03-03 15:58:00,50.9,34.9,28.70,East,90,3.1,7.2,54,0.00,,---,0.00,VWS V14.00,2013-03-03 20:58:00,
2013-03-03 16:04:00,50.7,34.7,28.70,South,180,2.7,3.4,54,0.00,,---,0.00,VWS V14.00,2013-03-03 21:04:00,
2013-03-03 16:10:00,50.7,34.7,28.70,NW,315,2.2,4.9,54,0.00,,---,0.00,VWS V14.00,2013-03-03 21:10:00,
2013-03-03 16:16:00,50.7,34.7,28.70,West,270,2.0,5.8,54,0.00,,---,0.00,VWS V14.00,2013-03-03 21:16:00,
2013-03-03 16:22:00,50.5,34.5,28.70,West,270,5.8,5.8,54,0.00,,---,0.00,VWS V14.00,2013-03-03 21:22:00,
2013-03-03 16:28:00,50.4,34.4,28.70,WNW,292,7.2,7.2,54,0.00,,---,0.00,VWS V14.00,2013-03-03 21:28:00,
2013-03-03 16:34:00,50.2,34.2,28.70,West,270,8.5,8.5,54,0.00,,---,0.00,VWS V14.00,2013-03-03 21:34:00,
2013-03-03 16:40:00,50.0,34.0,28.70,WNW,292,1.6,8.7,54,0.00,,---,0.00,VWS V14.00,2013-03-03 21:40:00,
2013-03-03 16:46:00,49.8,33.9,28.70,NW,315,2.7,8.7,54,0.00,,---,0.00,VWS V14.00,2013-03-03 21:46:00,
2013-03-03 16:52:00,49.5,33.5,28.73,NW,315,2.5,8.7,54,0.00,,---,0.00,VWS V14.00,2013-03-03 21:52:00,
2013-03-03 16:58:00,49.3,33.4,28.73,East,90,3.1,8.7,54,0.00,,---,0.00,VWS V14.00,2013-03-03 21:58:00,
2013-03-03 17:04:00,48.9,33.0,28.73,West,270,1.6,5.8,54,0.00,,---,0.00,VWS V14.00,2013-03-03 22:04:00,
2013-03-03 17:10:00,48.7,32.8,28.73,ESE,112,2.0,5.8,54,0.00,,---,0.00,VWS V14.00,2013-03-03 22:10:00,
2013-03-03 17:16:00,48.2,32.3,28.73,WNW,292,5.6,10.3,54,0.00,,---,0.00,VWS V14.00,2013-03-03 22:16:00,
2013-03-03 17:22:00,47.8,32.0,28.73,WSW,248,2.0,10.3,54,0.00,,---,0.00,VWS V14.00,2013-03-03 22:22:00,
2013-03-03 17:28:00,47.5,31.7,28.73,WNW,292,4.0,10.3,54,0.00,,---,0.00,VWS V14.00,2013-03-03 22:28:00,
2013-03-03 17:34:00,47.3,31.5,28.73,NW,315,6.3,10.3,54,0.00,,---,0.00,VWS V14.00,2013-03-03 22:34:00,
2013-03-03 17:40:00,46.8,31.0,28.73,West,270,6.3,10.3,54,0.00,,---,0.00,VWS V14.00,2013-03-03 22:40:00,
2013-03-03 17:46:00,46.4,30.7,28.73,ESE,112,2.5,10.3,54,0.00,,---,0.00,VWS V14.00,2013-03-03 22:46:00,
2013-03-03 17:52:00,46.0,30.8,28.73,South,180,1.3,10.3,55,0.00,,---,0.00,VWS V14.00,2013-03-03 22:52:00,
2013-03-03 17:58:00,45.9,30.6,28.73,ESE,112,1.3,10.3,55,0.00,,---,0.00,VWS V14.00,2013-03-03 22:58:00,
2013-03-03 18:04:00,45.5,30.3,28.73,East,90,1.3,1.6,55,0.00,,---,0.00,VWS V14.00,2013-03-03 23:04:00,
2013-03-03 18:10:00,45.1,30.0,28.76,West,270,4.3,4.3,55,0.00,,---,0.00,VWS V14.00,2013-03-03 23:10:00,
2013-03-03 18:16:00,44.6,29.5,28.76,ESE,112,2.7,12.3,55,0.00,,---,0.00,VWS V14.00,2013-03-03 23:16:00,
2013-03-03 18:22:00,44.4,29.3,28.79,NNW,338,0.0,12.3,55,0.00,,---,0.00,VWS V14.00,2013-03-03 23:22:00,
2013-03-03 18:28:00,44.1,28.9,28.79,WNW,292,2.7,12.3,55,0.00,,---,0.00,VWS V14.00,2013-03-03 23:28:00,
2013-03-03 18:34:00,43.7,28.6,28.79,West,270,3.8,12.3,55,0.00,,---,0.00,VWS V14.00,2013-03-03 23:34:00,
2013-03-03 18:40:00,43.3,28.3,28.76,NNE,22,1.1,12.3,55,0.00,,---,0.00,VWS V14.00,2013-03-03 23:40:00,
2013-03-03 18:46:00,42.8,27.8,28.76,ENE,68,3.6,12.3,55,0.00,,---,0.00,VWS V14.00,2013-03-03 23:46:00,
2013-03-03 18:52:00,42.4,27.9,28.76,ESE,112,1.3,12.3,56,0.00,,---,0.00,VWS V14.00,2013-03-03 23:52:00,
2013-03-03 18:58:00,42.3,27.7,28.76,WNW,292,3.4,12.3,56,0.00,,---,0.00,VWS V14.00,2013-03-03 23:58:00,
2013-03-03 19:04:00,41.7,27.2,28.79,East,90,1.3,4.7,56,0.00,,---,0.00,VWS V14.00,2013-03-04 00:04:00,
2013-03-03 19:10:00,41.4,26.9,28.79,NNE,22,1.6,4.7,56,0.00,,---,0.00,VWS V14.00,2013-03-04 00:10:00,
2013-03-03 19:16:00,41.2,26.7,28.79,ESE,112,0.0,4.7,56,0.00,,---,0.00,VWS V14.00,2013-03-04 00:16:00,
2013-03-03 19:23:00,40.8,26.4,28.79,SE,135,2.2,4.7,56,0.00,,---,0.00,VWS V14.00,2013-03-04 00:23:00,
2013-03-03 19:29:00,40.6,26.2,28.79,NNE,22,2.0,4.7,56,0.00,,---,0.00,VWS V14.00,2013-03-04 00:29:00,
2013-03-03 19:35:00,40.5,26.0,28.79,NW,315,0.0,4.7,56,0.00,,---,0.00,VWS V14.00,2013-03-04 00:35:00,
2013-03-03 19:41:00,40.3,25.9,28.79,West,270,0.9,4.7,56,0.00,,---,0.00,VWS V14.00,2013-03-04 00:41:00,
2013-03-03 19:47:00,39.9,25.5,28.79,WNW,292,0.0,4.7,56,0.00,,---,0.00,VWS V14.00,2013-03-04 00:47:00,
2013-03-03 19:53:00,39.9,25.5,28.82,NW,315,0.0,4.7,56,0.00,,---,0.00,VWS V14.00,2013-03-04 00:53:00,
2013-03-03 19:59:00,39.6,25.2,28.82,NW,315,2.0,4.7,56,0.00,,---,0.00,VWS V14.00,2013-03-04 00:59:00,
2013-03-03 20:05:00,39.4,25.0,28.82,West,270,6.0,6.0,56,0.00,,---,0.00,VWS V14.00,2013-03-04 01:05:00,
2013-03-03 20:11:00,39.4,25.0,28.82,NW,315,0.0,6.0,56,0.00,,---,0.00,VWS V14.00,2013-03-04 01:11:00,
2013-03-03 20:17:00,39.0,24.7,28.82,West,270,2.0,6.0,56,0.00,,---,0.00,VWS V14.00,2013-03-04 01:17:00,
2013-03-03 20:23:00,38.7,24.3,28.85,NW,315,0.0,6.0,56,0.00,,---,0.00,VWS V14.00,2013-03-04 01:23:00,
2013-03-03 20:29:00,38.7,24.3,28.85,West,270,0.0,6.0,56,0.00,,---,0.00,VWS V14.00,2013-03-04 01:29:00,
2013-03-03 20:35:00,38.5,24.2,28.82,WNW,292,1.3,6.0,56,0.00,,---,0.00,VWS V14.00,2013-03-04 01:35:00,
2013-03-03 20:41:00,38.3,24.0,28.82,ENE,68,0.0,6.0,56,0.00,,---,0.00,VWS V14.00,2013-03-04 01:41:00,
2013-03-03 20:47:00,38.1,23.8,28.82,North,0,0.0,6.0,56,0.00,,---,0.00,VWS V14.00,2013-03-04 01:47:00,
2013-03-03 20:53:00,37.9,23.7,28.82,WNW,292,0.0,6.0,56,0.00,,---,0.00,VWS V14.00,2013-03-04 01:53:00,
2013-03-03 20:59:00,37.8,23.5,28.82,ENE,68,0.0,6.0,56,0.00,,---,0.00,VWS V14.00,2013-03-04 01:59:00,
2013-03-03 21:05:00,37.6,23.3,28.82,WNW,292,0.0,0.0,56,0.00,,---,0.00,VWS V14.00,2013-03-04 02:05:00,
2013-03-03 21:11:00,37.4,23.1,28.82,WNW,292,2.0,2.9,56,0.00,,---,0.00,VWS V14.00,2013-03-04 02:11:00,
2013-03-03 21:17:00,37.4,23.1,28.82,NE,45,0.0,2.9,56,0.00,,---,0.00,VWS V14.00,2013-03-04 02:17:00,
2013-03-03 21:23:00,37.0,23.2,28.82,ENE,68,0.0,2.9,57,0.00,,---,0.00,VWS V14.00,2013-03-04 02:23:00,
2013-03-03 21:29:00,36.9,23.1,28.82,NE,45,1.3,2.9,57,0.00,,---,0.00,VWS V14.00,2013-03-04 02:29:00,
2013-03-03 21:35:00,36.9,23.1,28.85,North,0,0.0,2.9,57,0.00,,---,0.00,VWS V14.00,2013-03-04 02:35:00,
2013-03-03 21:41:00,36.7,22.9,28.85,NE,45,0.0,2.9,57,0.00,,---,0.00,VWS V14.00,2013-03-04 02:41:00,
2013-03-03 21:47:00,36.5,22.7,28.85,WNW,292,0.0,2.9,57,0.00,,---,0.00,VWS V14.00,2013-03-04 02:47:00,
2013-03-03 21:53:00,36.5,22.7,28.85,NNW,338,0.0,2.9,57,0.00,,---,0.00,VWS V14.00,2013-03-04 02:53:00,
2013-03-03 21:59:00,36.3,22.6,28.85,WNW,292,0.0,2.9,57,0.00,,---,0.00,VWS V14.00,2013-03-04 02:59:00,
2013-03-03 22:05:00,36.3,22.6,28.85,WNW,292,0.0,1.6,57,0.00,,---,0.00,VWS V14.00,2013-03-04 03:05:00,
2013-03-03 22:11:00,36.1,22.4,28.85,West,270,0.0,1.6,57,0.00,,---,0.00,VWS V14.00,2013-03-04 03:11:00,
2013-03-03 22:17:00,36.1,22.4,28.85,NW,315,0.0,1.6,57,0.00,,---,0.00,VWS V14.00,2013-03-04 03:17:00,
2013-03-03 22:23:00,35.8,22.0,28.85,NE,45,0.0,1.6,57,0.00,,---,0.00,VWS V14.00,2013-03-04 03:23:00,
2013-03-03 22:29:00,35.8,22.0,28.85,NNE,22,0.0,1.6,57,0.00,,---,0.00,VWS V14.00,2013-03-04 03:29:00,
2013-03-03 22:35:00,35.4,21.7,28.85,North,0,0.0,1.6,57,0.00,,---,0.00,VWS V14.00,2013-03-04 03:35:00,
2013-03-03 22:41:00,35.4,21.7,28.85,NNE,22,0.0,1.6,57,0.00,,---,0.00,VWS V14.00,2013-03-04 03:41:00,
2013-03-03 22:47:00,35.2,21.5,28.85,NE,45,0.0,1.6,57,0.00,,---,0.00,VWS V14.00,2013-03-04 03:47:00,
2013-03-03 22:53:00,34.9,21.2,28.85,NE,45,0.0,1.6,57,0.00,,---,0.00,VWS V14.00,2013-03-04 03:53:00,
2013-03-03 22:59:00,34.9,21.2,28.85,NE,45,0.0,1.6,57,0.00,,---,0.00,VWS V14.00,2013-03-04 03:59:00,
2013-03-03 23:05:00,34.5,20.9,28.85,NE,45,0.0,0.0,57,0.00,,---,0.00,VWS V14.00,2013-03-04 04:05:00,
2013-03-03 23:11:00,34.5,22.1,28.85,NE,45,0.0,0.0,60,0.00,,---,0.00,VWS V14.00,2013-03-04 04:11:00,
2013-03-03 23:17:00,34.5,22.1,28.85,NW,315,0.0,0.0,60,0.00,,---,0.00,VWS V14.00,2013-03-04 04:17:00,
2013-03-03 23:23:00,34.5,22.1,28.85,WNW,292,0.0,0.0,60,0.00,,---,0.00,VWS V14.00,2013-03-04 04:23:00,
2013-03-03 23:29:00,34.5,22.1,28.85,WNW,292,0.0,0.0,60,0.00,,---,0.00,VWS V14.00,2013-03-04 04:29:00,
2013-03-03 23:35:00,34.2,21.7,28.85,NE,45,0.0,0.0,60,0.00,,---,0.00,VWS V14.00,2013-03-04 04:35:00,
2013-03-03 23:41:00,34.0,21.6,28.85,NE,45,0.0,0.0,60,0.00,,---,0.00,VWS V14.00,2013-03-04 04:41:00,
2013-03-03 23:47:00,33.8,21.4,28.85,NE,45,0.0,0.0,60,0.00,,---,0.00,VWS V14.00,2013-03-04 04:47:00,
2013-03-03 23:53:00,33.6,21.2,28.85,NE,45,0.0,0.0,60,0.00,,---,0.00,VWS V14.00,2013-03-04 04:53:00,
2013-03-03 23:59:00,33.4,21.1,28.85,NE,45,0.0,0.0,60,0.00,,---,0.00,VWS V14.00,2013-03-04 04:59:00,